Location: Cardiff
(53.7833°N, 113.6000°W)
Time: 07:09:27
(UTC+00:00)

MOZHAYETS 4 - Visible Passes

Search period start: 06 December 2023 00:00
Search period end: 16 December 2023 00:00
Orbit: 656 x 672 km, 98.3° (Epoch: 06 December)

Date Brightness Start Highest point End Pass type
(mag) Time Alt. Az. Time Alt. Az. Time Alt. Az.
06 Dec 8.9 00:34:05 10° N 00:38:26 41° WNW 00:42:45 10° SW visible
07 Dec 9.8 01:05:18 10° N 01:09:03 25° WNW 01:12:48 10° WSW visible
07 Dec 7.9 23:58:38 10° NNE 00:03:16 80° WNW 00:07:53 10° SSW visible
08 Dec 10.3 01:36:48 10° NNW 01:39:33 16° NW 01:42:18 10° W visible
09 Dec 8.8 00:29:38 10° N 00:34:02 45° WNW 00:38:25 10° SW visible
10 Dec 9.6 01:00:48 10° N 01:04:40 27° WNW 01:08:31 10° WSW visible
10 Dec 7.8 23:54:11 10° NNE 23:58:50 87° WNW 00:03:27 10° SSW visible
11 Dec 10.3 01:32:13 10° NNW 01:35:10 17° NW 01:38:07 10° W visible
12 Dec 8.6 00:25:09 10° N 00:29:37 49° WNW 00:34:02 10° SW visible
12 Dec 10.6 02:04:32 10° NNW 02:05:33 11° NW 02:06:34 10° WNW visible
13 Dec 9.5 00:56:16 10° N 01:00:15 29° WNW 01:04:12 10° WSW visible
13 Dec 7.8 23:49:42 10° NNE 23:54:22 86° ESE 23:58:59 10° SSW visible
14 Dec 10.2 01:27:38 10° NNW 01:30:46 18° NW 01:33:52 10° W visible
15 Dec 8.5 00:20:38 10° N 00:25:09 54° WNW 00:29:37 10° SW visible
15 Dec 10.5 01:59:38 10° NNW 02:01:08 11° NW 02:02:40 10° WNW visible
